This is the latest recevied weather packets stored in our database for station/object OK1FET-5. If no packets are shown the sender has not sent any weather packets the latest 10 day(s).
| Time | Temp. | Humidity | Pressure | Rain* | Wind** | Luminosity | Snow |
|---|---|---|---|---|---|---|---|
| 1778006986 | 16.67° C | 56% | 1005.4 hPa | - | - | - | - |
| 1778006691 | 16.67° C | 55% | 1005.4 hPa | - | - | - | - |
| 1778006396 | 17.22° C | 55% | 1005.3 hPa | - | - | - | - |
| 1778006102 | 17.22° C | 54% | 1005.3 hPa | - | - | - | - |
| 1778005807 | 17.22° C | 56% | 1005.2 hPa | - | - | - | - |
| 1778005218 | 16.67° C | 59% | 1005.2 hPa | - | - | - | - |
| 1778004923 | 17.22° C | 62% | 1005.3 hPa | - | - | - | - |
| 1778004628 | 17.22° C | 70% | 1005.3 hPa | - | - | - | - |
| 1778004334 | 17.78° C | 73% | 1005.4 hPa | - | - | - | - |
| 1778004039 | 18.33° C | 65% | 1005.4 hPa | - | - | - | - |
| 1778003744 | 20° C | 53% | 1005.4 hPa | - | - | - | - |
| 1778003449 | 20.56° C | 55% | 1005.2 hPa | - | - | - | - |
| 1778003154 | 20.56° C | 49% | 1005.1 hPa | - | - | - | - |
| 1778002859 | 20.56° C | 42% | 1005 hPa | - | - | - | - |
| 1778002564 | 21.11° C | 42% | 1005 hPa | - | - | - | - |
| 1778002269 | 21.11° C | 41% | 1004.9 hPa | - | - | - | - |
| 1778001974 | 21.11° C | 41% | 1004.9 hPa | - | - | - | - |
| 1778001679 | 21.67° C | 41% | 1004.9 hPa | - | - | - | - |
| 1778001089 | 22.22° C | 40% | 1005 hPa | - | - | - | - |
| 1778000793 | 22.22° C | 40% | 1005.1 hPa | - | - | - | - |
| 1778000498 | 22.78° C | 39% | 1005.1 hPa | - | - | - | - |
| 1778000203 | 23.33° C | 38% | 1005.1 hPa | - | - | - | - |
| 1777999908 | 23.33° C | 38% | 1005.1 hPa | - | - | - | - |
| 1777999613 | 23.33° C | 38% | 1005.1 hPa | - | - | - | - |
| 1777999317 | 23.33° C | 38% | 1005 hPa | - | - | - | - |
* Rain since midnight (hover to see other rain measurements)
** Current wind speed in m/s (hover to see current wind gust speed)